Vertical_Velocity
-1 -1 -6 4 5 -1 4 4 -0 1 4 -3 5 2 2 -2 0 1 0 1 2 1 2 2 0 1 1 1 0 -0 0 1 -0 0 0 1 1 1 1 -0 0 -1 -1 2 -0
-1 1 2 2 3 2 5 -0 4 3 4 -3 2 1 1 -1 2 1 2 0 1 1 1 2 1 1 1 2 2 0 1 1 -1 -1 -1 -0 -0 1 0 2 0 -3 -2 -1 0
-1 0 1 2 4 5 1 2 4 3 1 1 1 -0 1 -0 1 0 1 -0 1 1 3 1 2 2 2 2 1 -1 0 -1 -1 -1 0 0 0 0 2 -4 2 -2 0 1 1
-0 -1 1 3 2 3 3 3 3 2 -0 1 2 -0 0 0 1 0 -0 -0 -0 1 2 1 1 1 -0 1 2 -0 0 -1 0 0 1 1 0 1 -2 1 2 0 0 -0 3
1 1 2 2 3 3 3 2 1 0 2 1 2 0 -0 1 1 -0 0 1 1 1 2 2 1 1 0 1 1 -1 1 1 2 0 1 3 1 3 -8 3 1 2 0 0 1
3 3 2 1 1 2 1 2 1 2 0 3 1 1 1 1 -0 0 0 0 0 1 2 1 1 0 2 -1 1 -1 0 1 -0 -3 2 1 1 2 -9 1 1 3 2 -1 -1
3 2 2 1 1 1 1 1 1 1 1 2 1 1 1 2 3 2 1 2 1 1 -0 1 1 2 1 -3 1 -0 1 1 -4 -3 7 -1 4 -4 1 -1 -2 4 3 4 2
-0 0 2 2 1 1 0 -0 0 1 2 1 2 1 0 -0 2 2 1 0 -1 -1 0 0 1 1 1 1 1 -0 2 1 -5 0 1 -3 15 -5 0 -1 0 3 5 5 4
0 0 -0 0 2 1 -1 -0 1 1 2 2 2 1 2 -1 2 4 1 2 1 0 0 -1 -0 2 2 2 -0 1 -2 -1 -1 1 -1 -5 14 -3 -1 1 4 3 3 2 0
0 -0 -1 0 1 1 1 0 0 1 2 3 1 0 2 0 1 3 1 1 1 0 -1 -2 -1 3 5 -1 1 -8 -0 2 5 1 -6 -5 10 2 -1 5 9 4 -2 -1 -2
0 -1 -0 1 0 0 1 1 1 1 0 2 2 1 1 0 1 2 2 2 2 2 -1 -3 -3 12 -10 -2 -1 -2 -2 -3 9 -3 -14 -1 -4 9 8 10 -5 -32 -2 7 11
1 1 -0 1 1 1 0 0 0 2 1 1 -1 1 0 2 1 -0 1 0 1 -1 -0 -1 7 -10 -0 -0 -3 -3 -1 9 7 -0 -17 -3 4 7 15 -18 1 -0 -3 0 3
1 1 1 -1 2 1 1 1 0 -0 1 -1 -1 1 1 2 3 -0 -1 2 -0 0 -3 -7 11 1 -1 -1 -3 4 -3 8 -8 -3 -5 -6 -3 12 -1 -2 -4 -2 -1 -1 3
0 -1 0 3 0 2 2 2 2 1 -2 1 -0 -4 -4 -1 -1 0 0 -2 1 -1 -4 -3 7 2 -3 6 -8 -6 11 -6 2 -9 0 4 -29 8 -2 4 2 -5 -1 -1 0
0 -2 1 -1 2 0 1 2 3 2 -7 -3 -1 2 2 -2 -1 -2 -2 -1 -2 -3 -3 -1 3 -2 2 7 -8 10 1 1 3 -2 -11 2 -11 15 6 8 -4 -1 -2 3 4
1 1 1 0 -0 1 0 1 1 -1 -4 -3 2 -0 -2 1 1 2 2 1 -3 0 -1 8 -1 3 3 2 2 -1 2 -0 -2 4 -30 29 14 -4 -1 10 -9 7 0 -1 1
1 2 0 1 1 1 1 1 -1 -3 3 0 3 1 4 -0 3 3 0 -0 -1 -3 1 -2 2 3 -3 -2 3 -0 3 -9 -15 3 -16 7 -8 -18 -6 7 5 0 0 3 2
0 0 0 1 0 0 0 0 -1 3 3 7 3 2 0 0 0 0 -2 -5 -0 -3 1 -1 9 10 11 4 -0 3 7 7 -6 -5 -6 0 -28 -12 -8 1 4 8 1 -1 3
1 1 1 2 2 2 1 0 3 5 1 1 3 -3 4 3 -2 2 2 -3 -1 1 1 -12 -1 5 -1 1 1 6 8 5 -6 1 -12 7 -8 -7 -3 -4 -5 2 7 3 -6
1 3 1 1 1 2 1 2 0 -1 0 1 3 1 2 2 1 -1 2 3 1 3 4 -12 -23 7 12 8 8 -5 -1 -2 11 -14 -1 -18 -0 -13 -4 -1 -1 -4 -1 10 3
4 5 3 3 3 3 3 3 1 1 1 2 4 5 3 2 0 1 -4 0 3 0 -4 -4 -11 19 -1 5 -0 7 2 6 8 15 -15 -12 -6 -2 -4 -1 1 1 0 1 6
0 -1 3 2 0 2 2 2 0 -0 1 3 3 2 3 2 1 -1 -3 -2 3 -1 -5 1 -19 -17 11 6 5 -3 -10 2 5 -4 -1 -1 -29 4 7 1 -2 -3 -3 -2 2
4 3 2 -0 -1 -0 1 0 0 -0 1 3 2 2 3 2 -5 6 1 4 -1 -0 -4 -2 -17 -18 14 -5 8 3 -2 2 1 1 -6 9 -12 -10 -6 2 1 0 0 -2 -1
2 2 2 1 -2 -0 1 1 -1 -1 2 1 3 1 1 1 1 -8 5 -4 -5 -4 -3 -9 4 -3 -9 -6 -1 6 4 5 4 -2 -7 4 -5 -0 -6 -2 4 6 2 2 1
1 2 1 -2 -2 -1 -0 -2 -2 1 -0 1 5 2 2 -3 2 1 -3 -1 3 1 -3 -1 -3 -2 3 2 -7 -8 4 6 7 9 5 10 6 3 4 6 3 -0 7 9 10
2 1 0 -1 -2 0 -0 -0 -0 -2 -2 -0 -5 -2 -5 -2 -0 0 -6 -0 14 -2 -2 -5 -4 -12 7 -2 -3 -12 -6 5 6 3 2 -1 1 2 2 -0 3 8 5 3 6
1 -3 0 0 -1 -1 -2 -1 1 -3 4 -1 -0 4 -8 -4 -1 -4 -2 4 -2 5 1 1 -7 -10 -1 -2 -6 -5 3 -5 -2 2 1 -0 1 -3 -5 1 2 0 4 5 1
Height
5719 5719 5720 5721 5723 5727 5732 5736 5740 5744 5749 5753 5755 5758 5759 5763 5764 5766 5768 5770 5771 5773 5775 5778 5780 5782 5784 5786 5787 5788 5790 5791 5791 5792 5793 5794 5795 5796 5797 5798 5799 5799 5799 5801 5802
5718 5718 5719 5720 5723 5726 5731 5735 5738 5743 5747 5750 5754 5756 5758 5761 5762 5763 5766 5767 5769 5771 5774 5776 5779 5781 5783 5784 5785 5786 5788 5789 5789 5790 5791 5792 5793 5794 5795 5796 5797 5798 5798 5799 5800
5720 5720 5720 5721 5723 5727 5731 5734 5738 5742 5745 5748 5751 5754 5756 5758 5760 5761 5763 5765 5767 5770 5772 5775 5777 5779 5781 5782 5784 5784 5785 5786 5787 5788 5789 5790 5791 5792 5792 5792 5795 5795 5796 5797 5797
5723 5723 5723 5724 5726 5728 5731 5735 5738 5741 5743 5746 5749 5752 5754 5756 5759 5759 5761 5763 5765 5768 5771 5773 5775 5776 5778 5779 5781 5782 5782 5784 5785 5786 5787 5788 5788 5789 5789 5788 5793 5794 5793 5793 5794
5726 5726 5726 5726 5727 5729 5732 5735 5737 5739 5742 5744 5746 5749 5751 5753 5755 5756 5759 5761 5764 5766 5768 5770 5772 5774 5775 5776 5778 5778 5780 5781 5782 5783 5784 5785 5785 5787 5785 5787 5789 5789 5789 5789 5790
5726 5726 5727 5727 5728 5730 5731 5733 5735 5737 5739 5742 5744 5746 5748 5751 5752 5754 5756 5758 5761 5763 5765 5767 5769 5770 5772 5773 5775 5776 5776 5778 5779 5779 5781 5782 5783 5784 5781 5783 5785 5786 5786 5786 5785
5726 5726 5727 5727 5727 5729 5730 5731 5733 5734 5737 5739 5741 5742 5745 5748 5749 5751 5753 5755 5757 5759 5761 5763 5765 5767 5768 5769 5771 5772 5773 5774 5775 5775 5778 5777 5780 5778 5780 5778 5779 5780 5782 5782 5781
5726 5726 5726 5726 5727 5728 5729 5730 5731 5732 5734 5736 5737 5739 5741 5744 5745 5747 5749 5752 5754 5755 5758 5759 5761 5762 5764 5764 5766 5768 5770 5771 5770 5771 5772 5774 5777 5773 5774 5775 5773 5775 5775 5777 5777
5724 5724 5724 5725 5725 5726 5727 5728 5729 5730 5731 5733 5734 5736 5739 5740 5742 5744 5745 5748 5749 5751 5753 5754 5756 5758 5759 5760 5761 5762 5763 5764 5765 5766 5766 5767 5771 5769 5768 5769 5769 5769 5769 5769 5769
5721 5721 5722 5722 5723 5724 5724 5725 5726 5727 5728 5730 5731 5734 5736 5737 5738 5739 5740 5742 5744 5746 5748 5749 5750 5752 5754 5754 5754 5753 5756 5758 5760 5760 5758 5759 5764 5764 5762 5762 5764 5762 5760 5761 5761
5717 5718 5718 5719 5720 5721 5721 5722 5724 5725 5725 5726 5728 5729 5730 5732 5733 5734 5735 5737 5738 5740 5741 5742 5745 5748 5746 5745 5746 5748 5748 5750 5753 5751 5749 5752 5754 5758 5757 5754 5754 5750 5751 5752 5752
5713 5713 5714 5715 5716 5717 5718 5718 5719 5721 5721 5721 5723 5724 5725 5727 5728 5728 5730 5732 5733 5733 5734 5737 5738 5739 5739 5738 5739 5739 5740 5742 5743 5741 5739 5741 5745 5749 5748 5743 5745 5746 5746 5746 5745
5708 5708 5709 5710 5711 5713 5713 5714 5715 5716 5717 5717 5717 5719 5720 5721 5722 5723 5724 5725 5726 5727 5727 5728 5731 5732 5731 5731 5730 5731 5730 5730 5730 5731 5731 5729 5734 5737 5737 5735 5736 5736 5737 5736 5736
5702 5702 5703 5704 5707 5707 5708 5709 5710 5710 5711 5713 5712 5713 5714 5715 5716 5716 5716 5718 5718 5719 5719 5721 5722 5722 5723 5723 5720 5721 5722 5718 5719 5718 5720 5721 5719 5723 5726 5726 5726 5726 5726 5726 5726
5696 5696 5698 5698 5700 5701 5702 5703 5704 5705 5704 5706 5707 5707 5707 5709 5710 5709 5709 5709 5710 5711 5713 5713 5712 5712 5713 5713 5711 5713 5710 5709 5707 5707 5705 5712 5705 5711 5715 5715 5716 5717 5717 5716 5717
5688 5689 5691 5692 5693 5694 5695 5696 5698 5699 5697 5699 5700 5700 5701 5701 5702 5702 5702 5702 5702 5703 5704 5706 5704 5705 5705 5704 5704 5702 5699 5698 5696 5695 5691 5702 5695 5698 5701 5700 5704 5705 5704 5705 5706
5679 5680 5682 5683 5685 5686 5687 5688 5689 5688 5690 5692 5692 5693 5693 5693 5693 5693 5693 5693 5694 5694 5695 5695 5696 5695 5695 5694 5694 5692 5688 5684 5682 5681 5682 5686 5680 5683 5686 5687 5688 5689 5691 5690 5691
5670 5672 5673 5675 5676 5677 5678 5680 5680 5681 5682 5683 5683 5683 5683 5683 5684 5683 5683 5683 5683 5682 5682 5683 5686 5686 5685 5683 5681 5680 5678 5674 5664 5668 5668 5667 5663 5668 5670 5671 5673 5674 5672 5676 5676
5662 5663 5664 5666 5667 5669 5670 5670 5672 5672 5672 5673 5673 5672 5673 5675 5674 5673 5673 5672 5672 5671 5671 5668 5672 5673 5671 5669 5667 5666 5665 5661 5652 5653 5647 5653 5653 5651 5653 5654 5656 5656 5655 5653 5655
5655 5657 5658 5659 5660 5661 5662 5662 5662 5662 5663 5663 5663 5664 5664 5665 5664 5663 5660 5661 5661 5660 5659 5657 5656 5660 5660 5658 5655 5649 5649 5645 5642 5636 5631 5633 5634 5630 5636 5636 5636 5637 5638 5636 5636
5648 5650 5651 5652 5653 5654 5655 5655 5655 5655 5655 5656 5656 5655 5656 5655 5654 5653 5650 5651 5649 5648 5646 5644 5643 5647 5644 5641 5638 5637 5634 5630 5627 5624 5617 5616 5613 5617 5616 5616 5616 5617 5618 5618 5618
5645 5646 5646 5647 5649 5648 5648 5648 5648 5648 5648 5648 5648 5647 5647 5646 5646 5644 5642 5640 5638 5636 5634 5633 5630 5630 5630 5625 5620 5617 5614 5614 5609 5607 5602 5598 5594 5602 5598 5596 5594 5594 5595 5596 5597
5643 5644 5644 5644 5644 5643 5642 5642 5642 5641 5640 5640 5639 5639 5638 5636 5634 5633 5631 5629 5626 5623 5621 5620 5616 5617 5619 5611 5602 5598 5598 5595 5590 5586 5585 5579 5579 5579 5575 5575 5574 5575 5576 5576 5576
5640 5640 5640 5639 5638 5638 5637 5636 5635 5635 5634 5632 5631 5630 5628 5626 5623 5621 5618 5615 5610 5607 5604 5601 5602 5599 5599 5593 5585 5581 5579 5575 5569 5564 5563 5558 5556 5558 5557 5557 5554 5553 5554 5555 5556
5636 5635 5634 5634 5633 5632 5630 5629 5627 5627 5626 5624 5622 5620 5618 5615 5613 5610 5605 5601 5596 5591 5586 5582 5580 5578 5576 5573 5563 5561 5558 5553 5550 5547 5543 5544 5539 5538 5536 5535 5533 5531 5530 5530 5531
5631 5630 5629 5628 5626 5625 5623 5622 5620 5618 5617 5615 5612 5608 5606 5603 5599 5595 5590 5585 5581 5575 5568 5564 5560 5556 5558 5550 5545 5541 5539 5534 5528 5522 5519 5517 5517 5515 5513 5514 5513 5511 5509 5509 5509
5625 5623 5622 5621 5619 5617 5615 5613 5611 5608 5607 5604 5601 5596 5592 5588 5583 5578 5574 5569 5564 5558 5550 5546 5539 5536 5536 5529 5525 5524 5520 5514 5509 5503 5498 5496 5494 5492 5491 5491 5490 5489 5488 5486 5485